Time,TemperatureF,DewpointF,PressureIn,WindDirection,WindDirectionDegrees,WindSpeedMPH,WindSpeedGustMPH,Humidity,HourlyPrecipIn,Conditions,Clouds,dailyrainin,SoftwareType,DateUTC
2013-04-30 00:02:00,68.3,57.3,21.38,WNW,289,0.0,2.0,68,0.00,,---,0.00,VWS V13.01,2013-04-30 07:02:00,
2013-04-30 00:07:00,68.0,57.5,21.39,WNW,289,2.0,3.0,69,0.00,,---,0.00,VWS V13.01,2013-04-30 07:07:00,
2013-04-30 00:12:00,67.7,56.8,21.39,WNW,289,0.0,3.0,68,0.00,,---,0.00,VWS V13.01,2013-04-30 07:12:00,
2013-04-30 00:17:00,67.7,56.8,21.39,WNW,289,0.0,3.0,68,0.00,,---,0.00,VWS V13.01,2013-04-30 07:17:00,
2013-04-30 00:22:00,67.6,57.1,21.39,WNW,289,2.0,3.0,69,0.00,,---,0.00,VWS V13.01,2013-04-30 07:22:00,
2013-04-30 00:27:00,67.3,56.8,21.39,WNW,289,1.0,3.0,69,0.00,,---,0.00,VWS V13.01,2013-04-30 07:27:00,
2013-04-30 00:32:00,67.0,56.9,21.39,WNW,289,0.0,1.0,70,0.00,,---,0.00,VWS V13.01,2013-04-30 07:32:00,
2013-04-30 00:37:00,66.8,56.7,21.39,WNW,289,3.0,4.0,70,0.00,,---,0.00,VWS V13.01,2013-04-30 07:37:00,
2013-04-30 00:42:00,66.4,56.3,21.39,WNW,289,2.0,4.0,70,0.00,,---,0.00,VWS V13.01,2013-04-30 07:42:00,
2013-04-30 00:47:00,66.2,56.5,21.39,WNW,289,2.0,4.0,71,0.00,,---,0.00,VWS V13.01,2013-04-30 07:47:00,
2013-04-30 00:52:00,66.1,56.0,21.39,WNW,291,3.0,4.0,70,0.00,,---,0.00,VWS V13.01,2013-04-30 07:52:00,
2013-04-30 00:57:00,66.0,56.0,21.39,WNW,292,3.0,4.0,70,0.00,,---,0.00,VWS V13.01,2013-04-30 07:57:00,
2013-04-30 01:02:00,66.0,56.0,21.39,WNW,292,1.0,4.0,70,0.00,,---,0.00,VWS V13.01,2013-04-30 08:02:00,
2013-04-30 01:07:00,66.1,55.2,21.38,WNW,301,1.0,5.0,68,0.00,,---,0.00,VWS V13.01,2013-04-30 08:07:00,
2013-04-30 01:12:00,66.3,55.0,21.38,WNW,302,4.0,5.0,67,0.00,,---,0.00,VWS V13.01,2013-04-30 08:12:00,
2013-04-30 01:17:00,66.7,53.7,21.39,NNW,329,3.0,6.0,63,0.00,,---,0.00,VWS V13.01,2013-04-30 08:17:00,
2013-04-30 01:22:00,67.3,53.0,21.39,NNW,337,3.0,6.0,60,0.00,,---,0.00,VWS V13.01,2013-04-30 08:22:00,
2013-04-30 01:27:00,67.8,52.0,21.38,NNW,342,4.0,7.0,57,0.00,,---,0.00,VWS V13.01,2013-04-30 08:27:00,
2013-04-30 01:32:00,68.2,51.9,21.38,NNW,342,2.0,5.0,56,0.00,,---,0.00,VWS V13.01,2013-04-30 08:32:00,
2013-04-30 01:37:00,68.5,51.7,21.39,NNW,343,4.0,6.0,55,0.00,,---,0.00,VWS V13.01,2013-04-30 08:37:00,
2013-04-30 01:42:00,68.6,51.3,21.39,NNW,343,2.0,6.0,54,0.00,,---,0.00,VWS V13.01,2013-04-30 08:42:00,
2013-04-30 01:47:00,68.7,51.4,21.39,NNW,343,1.0,6.0,54,0.00,,---,0.00,VWS V13.01,2013-04-30 08:47:00,
2013-04-30 01:52:00,68.6,51.3,21.39,NNW,343,1.0,6.0,54,0.00,,---,0.00,VWS V13.01,2013-04-30 08:52:00,
2013-04-30 01:57:00,68.5,51.2,21.39,NNW,343,2.0,6.0,54,0.00,,---,0.00,VWS V13.01,2013-04-30 08:57:00,
2013-04-30 02:02:00,68.6,50.8,21.38,NNW,343,4.0,6.0,53,0.00,,---,0.00,VWS V13.01,2013-04-30 09:02:00,
2013-04-30 02:07:00,68.6,50.8,21.39,NNW,342,4.0,6.0,53,0.00,,---,0.00,VWS V13.01,2013-04-30 09:07:00,
2013-04-30 02:12:00,68.6,50.8,21.39,NNW,342,2.0,6.0,53,0.00,,---,0.00,VWS V13.01,2013-04-30 09:12:00,
2013-04-30 02:17:00,68.6,50.8,21.39,NNW,342,3.0,7.0,53,0.00,,---,0.00,VWS V13.01,2013-04-30 09:17:00,
2013-04-30 02:22:00,68.5,50.7,21.39,NNW,342,2.0,7.0,53,0.00,,---,0.00,VWS V13.01,2013-04-30 09:22:00,
2013-04-30 02:27:00,68.5,50.7,21.38,NNW,342,3.0,7.0,53,0.00,,---,0.00,VWS V13.01,2013-04-30 09:27:00,
2013-04-30 02:32:00,68.5,50.2,21.39,NNW,343,4.0,5.0,52,0.00,,---,0.00,VWS V13.01,2013-04-30 09:32:00,
2013-04-30 02:37:00,68.5,50.2,21.39,NNW,344,3.0,7.0,52,0.00,,---,0.00,VWS V13.01,2013-04-30 09:37:00,
2013-04-30 02:42:00,68.5,50.2,21.39,NNW,342,8.0,8.0,52,0.00,,---,0.00,VWS V13.01,2013-04-30 09:42:00,
2013-04-30 02:47:00,68.5,49.7,21.39,NNW,345,8.0,11.0,51,0.00,,---,0.00,VWS V13.01,2013-04-30 09:47:00,
2013-04-30 02:52:00,68.5,49.7,21.39,NNW,339,5.0,11.0,51,0.00,,---,0.00,VWS V13.01,2013-04-30 09:52:00,
2013-04-30 02:57:00,68.6,49.2,21.39,NNW,343,9.0,11.0,50,0.00,,---,0.00,VWS V13.01,2013-04-30 09:57:00,
2013-04-30 03:02:00,68.6,49.2,21.39,North,350,4.0,8.0,50,0.00,,---,0.00,VWS V13.01,2013-04-30 10:02:00,
2013-04-30 03:07:00,68.5,49.2,21.39,NNW,344,8.0,8.0,50,0.00,,---,0.00,VWS V13.01,2013-04-30 10:07:00,
2013-04-30 03:12:00,68.4,48.5,21.39,NNW,339,4.0,9.0,49,0.00,,---,0.00,VWS V13.01,2013-04-30 10:12:00,
2013-04-30 03:17:00,68.3,49.0,21.39,North,353,4.0,9.0,50,0.00,,---,0.00,VWS V13.01,2013-04-30 10:17:00,
2013-04-30 03:22:00,68.2,48.3,21.39,North,0,3.0,9.0,49,0.00,,---,0.00,VWS V13.01,2013-04-30 10:22:00,
2013-04-30 03:27:00,68.1,48.2,21.39,North,351,4.0,9.0,49,0.00,,---,0.00,VWS V13.01,2013-04-30 10:27:00,
2013-04-30 03:32:00,68.1,47.7,21.39,NNW,335,5.0,10.0,48,0.00,,---,0.00,VWS V13.01,2013-04-30 10:32:00,
2013-04-30 03:37:00,68.1,47.1,21.40,NNW,340,5.0,10.0,47,0.00,,---,0.00,VWS V13.01,2013-04-30 10:37:00,
2013-04-30 03:42:00,68.1,47.1,21.40,NNW,347,3.0,10.0,47,0.00,,---,0.00,VWS V13.01,2013-04-30 10:42:00,
2013-04-30 03:47:00,68.0,46.5,21.40,North,355,5.0,10.0,46,0.00,,---,0.00,VWS V13.01,2013-04-30 10:47:00,
2013-04-30 03:52:00,67.9,46.4,21.40,NNW,341,5.0,10.0,46,0.00,,---,0.00,VWS V13.01,2013-04-30 10:52:00,
2013-04-30 03:57:00,67.8,46.3,21.40,NNW,342,4.0,10.0,46,0.00,,---,0.00,VWS V13.01,2013-04-30 10:57:00,
2013-04-30 04:02:00,67.6,46.1,21.40,NNW,341,5.0,6.0,46,0.00,,---,0.00,VWS V13.01,2013-04-30 11:02:00,
2013-04-30 04:07:00,67.4,46.5,21.40,North,353,4.0,7.0,47,0.00,,---,0.00,VWS V13.01,2013-04-30 11:07:00,
2013-04-30 04:12:00,67.3,46.4,21.40,NNW,329,5.0,7.0,47,0.00,,---,0.00,VWS V13.01,2013-04-30 11:12:00,
2013-04-30 04:17:00,67.1,46.2,21.40,NNW,348,4.0,8.0,47,0.00,,---,0.00,VWS V13.01,2013-04-30 11:17:00,
2013-04-30 04:22:00,67.0,46.1,21.40,North,356,7.0,9.0,47,0.00,,---,0.00,VWS V13.01,2013-04-30 11:22:00,
2013-04-30 04:27:00,66.9,46.0,21.40,NNW,337,4.0,9.0,47,0.00,,---,0.00,VWS V13.01,2013-04-30 11:27:00,
2013-04-30 04:32:00,66.7,45.8,21.40,NNW,337,3.0,6.0,47,0.00,,---,0.00,VWS V13.01,2013-04-30 11:32:00,
2013-04-30 04:37:00,66.6,45.8,21.40,NNW,347,5.0,11.0,47,0.00,,---,0.00,VWS V13.01,2013-04-30 11:37:00,
2013-04-30 04:42:00,66.6,46.3,21.40,North,353,7.0,11.0,48,0.00,,---,0.00,VWS V13.01,2013-04-30 11:42:00,
2013-04-30 04:47:00,66.4,46.1,21.41,North,350,6.0,11.0,48,0.00,,---,0.00,VWS V13.01,2013-04-30 11:47:00,
2013-04-30 04:52:00,66.3,45.5,21.41,NNW,339,3.0,11.0,47,0.00,,---,0.00,VWS V13.01,2013-04-30 11:52:00,
2013-04-30 04:57:00,66.3,45.5,21.41,NNW,348,3.0,11.0,47,0.00,,---,0.00,VWS V13.01,2013-04-30 11:57:00,
2013-04-30 05:02:00,66.2,45.4,21.41,NW,322,4.0,8.0,47,0.00,,---,0.00,VWS V13.01,2013-04-30 12:02:00,
2013-04-30 05:07:00,66.2,44.8,21.41,North,359,4.0,10.0,46,0.00,,---,0.00,VWS V13.01,2013-04-30 12:07:00,
2013-04-30 05:12:00,66.1,44.7,21.41,North,358,6.0,10.0,46,0.00,,---,0.00,VWS V13.01,2013-04-30 12:12:00,
2013-04-30 05:17:00,66.0,45.2,21.41,North,350,3.0,10.0,47,0.00,,---,0.00,VWS V13.01,2013-04-30 12:17:00,
2013-04-30 05:22:00,65.8,45.0,21.41,North,352,5.0,10.0,47,0.00,,---,0.00,VWS V13.01,2013-04-30 12:22:00,
2013-04-30 05:27:00,65.7,44.9,21.42,NNW,344,5.0,10.0,47,0.00,,---,0.00,VWS V13.01,2013-04-30 12:27:00,
2013-04-30 05:32:00,65.6,44.8,21.42,NNW,345,3.0,6.0,47,0.00,,---,0.00,VWS V13.01,2013-04-30 12:32:00,
2013-04-30 05:37:00,65.4,44.7,21.42,NNW,347,4.0,7.0,47,0.00,,---,0.00,VWS V13.01,2013-04-30 12:37:00,
2013-04-30 05:42:00,65.4,44.1,21.42,North,352,5.0,9.0,46,0.00,,---,0.00,VWS V13.01,2013-04-30 12:42:00,
2013-04-30 05:47:00,65.3,43.4,21.42,NNW,329,4.0,9.0,45,0.00,,---,0.00,VWS V13.01,2013-04-30 12:47:00,
2013-04-30 05:52:00,65.3,42.8,21.42,North,351,6.0,9.0,44,0.00,,---,0.00,VWS V13.01,2013-04-30 12:52:00,
2013-04-30 05:57:00,65.3,42.2,21.42,NNW,342,5.0,9.0,43,0.00,,---,0.00,VWS V13.01,2013-04-30 12:57:00,
2013-04-30 06:02:00,65.3,41.6,21.42,NNW,337,8.0,11.0,42,0.00,,---,0.00,VWS V13.01,2013-04-30 13:02:00,
2013-04-30 06:07:00,65.3,42.2,21.42,NNW,329,7.0,11.0,43,0.00,,---,0.00,VWS V13.01,2013-04-30 13:07:00,
2013-04-30 06:12:00,65.3,42.2,21.43,NNW,335,7.0,11.0,43,0.00,,---,0.00,VWS V13.01,2013-04-30 13:12:00,
2013-04-30 06:17:00,65.3,41.6,21.42,NW,326,6.0,12.0,42,0.00,,---,0.00,VWS V13.01,2013-04-30 13:17:00,
2013-04-30 06:22:00,65.4,41.1,21.43,NNW,346,6.0,12.0,41,0.00,,---,0.00,VWS V13.01,2013-04-30 13:22:00,
2013-04-30 06:27:00,65.5,41.2,21.43,NNW,339,4.0,14.0,41,0.00,,---,0.00,VWS V13.01,2013-04-30 13:27:00,
2013-04-30 06:32:00,65.5,41.8,21.43,NNW,337,6.0,13.0,42,0.00,,---,0.00,VWS V13.01,2013-04-30 13:32:00,
2013-04-30 06:37:00,65.5,41.2,21.43,NNW,341,8.0,16.0,41,0.00,,---,0.00,VWS V13.01,2013-04-30 13:37:00,
2013-04-30 06:42:00,65.5,41.2,21.43,NW,326,10.0,16.0,41,0.00,,---,0.00,VWS V13.01,2013-04-30 13:42:00,
2013-04-30 06:47:00,65.5,40.6,21.44,NNW,340,6.0,16.0,40,0.00,,---,0.00,VWS V13.01,2013-04-30 13:47:00,
2013-04-30 06:52:00,65.5,39.9,21.43,NNW,331,8.0,18.0,39,0.00,,---,0.00,VWS V13.01,2013-04-30 13:52:00,
2013-04-30 06:57:00,65.6,40.0,21.43,NNW,341,12.0,18.0,39,0.00,,---,0.00,VWS V13.01,2013-04-30 13:57:00,
2013-04-30 07:02:00,65.5,40.6,21.44,NNW,336,7.0,14.0,40,0.00,,---,0.00,VWS V13.01,2013-04-30 14:02:00,
2013-04-30 07:07:00,65.4,40.5,21.44,NNW,344,6.0,15.0,40,0.00,,---,0.00,VWS V13.01,2013-04-30 14:07:00,
2013-04-30 07:13:00,65.4,40.5,21.45,NNW,343,6.0,15.0,40,0.00,,---,0.00,VWS V13.01,2013-04-30 14:13:00,
2013-04-30 07:18:00,65.4,39.8,21.44,NNW,347,6.0,15.0,39,0.00,,---,0.00,VWS V13.01,2013-04-30 14:18:00,
2013-04-30 07:23:00,65.5,39.2,21.44,NNW,331,8.0,18.0,38,0.00,,---,0.00,VWS V13.01,2013-04-30 14:23:00,
2013-04-30 07:28:00,65.6,39.3,21.44,NNW,337,6.0,18.0,38,0.00,,---,0.00,VWS V13.01,2013-04-30 14:28:00,
2013-04-30 07:33:00,65.7,38.7,21.45,NNW,348,7.0,10.0,37,0.00,,---,0.00,VWS V13.01,2013-04-30 14:33:00,
2013-04-30 07:38:00,65.9,38.2,21.45,NNW,332,5.0,11.0,36,0.00,,---,0.00,VWS V13.01,2013-04-30 14:38:00,
2013-04-30 07:43:00,66.1,37.7,21.45,NNW,342,11.0,14.0,35,0.00,,---,0.00,VWS V13.01,2013-04-30 14:43:00,
2013-04-30 07:48:00,66.3,37.8,21.45,NNW,338,10.0,15.0,35,0.00,,---,0.00,VWS V13.01,2013-04-30 14:48:00,
2013-04-30 07:53:00,66.5,38.8,21.45,NW,326,10.0,15.0,36,0.00,,---,0.00,VWS V13.01,2013-04-30 14:53:00,
2013-04-30 07:58:00,66.7,36.7,21.45,NNW,345,8.0,16.0,33,0.00,,---,0.00,VWS V13.01,2013-04-30 14:58:00,
2013-04-30 08:03:00,66.8,38.3,21.45,North,349,5.0,15.0,35,0.00,,---,0.00,VWS V13.01,2013-04-30 15:03:00,
2013-04-30 08:08:00,67.3,38.0,21.45,NNW,339,6.0,15.0,34,0.00,,---,0.00,VWS V13.01,2013-04-30 15:08:00,
2013-04-30 08:13:00,67.5,37.4,21.45,North,358,8.0,15.0,33,0.00,,---,0.00,VWS V13.01,2013-04-30 15:13:00,
2013-04-30 08:18:00,67.7,37.6,21.45,NNW,330,10.0,15.0,33,0.00,,---,0.00,VWS V13.01,2013-04-30 15:18:00,
2013-04-30 08:23:00,67.7,36.8,21.45,NNW,340,8.0,16.0,32,0.00,,---,0.00,VWS V13.01,2013-04-30 15:23:00,
2013-04-30 08:28:00,67.8,37.7,21.46,NNW,335,9.0,16.0,33,0.00,,---,0.00,VWS V13.01,2013-04-30 15:28:00,
2013-04-30 08:33:00,67.6,37.5,21.46,North,355,10.0,12.0,33,0.00,,---,0.00,VWS V13.01,2013-04-30 15:33:00,
2013-04-30 08:38:00,67.6,36.7,21.46,NNW,331,6.0,15.0,32,0.00,,---,0.00,VWS V13.01,2013-04-30 15:38:00,
2013-04-30 08:43:00,67.7,37.6,21.46,NNW,339,8.0,15.0,33,0.00,,---,0.00,VWS V13.01,2013-04-30 15:43:00,
2013-04-30 08:48:00,67.8,37.7,21.46,NNW,348,3.0,15.0,33,0.00,,---,0.00,VWS V13.01,2013-04-30 15:48:00,
2013-04-30 08:53:00,68.0,37.1,21.46,NNW,328,7.0,15.0,32,0.00,,---,0.00,VWS V13.01,2013-04-30 15:53:00,
2013-04-30 08:58:00,68.2,36.4,21.46,NNW,337,6.0,15.0,31,0.00,,---,0.00,VWS V13.01,2013-04-30 15:58:00,
2013-04-30 09:03:00,68.5,35.9,21.46,NNW,341,9.0,15.0,30,0.00,,---,0.00,VWS V13.01,2013-04-30 16:03:00,
2013-04-30 09:08:00,68.7,35.2,21.47,NNW,348,6.0,16.0,29,0.00,,---,0.00,VWS V13.01,2013-04-30 16:08:00,
2013-04-30 09:13:00,69.0,34.6,21.47,North,357,7.0,18.0,28,0.00,,---,0.00,VWS V13.01,2013-04-30 16:13:00,
2013-04-30 09:18:00,69.3,33.9,21.46,NNW,337,10.0,18.0,27,0.00,,---,0.00,VWS V13.01,2013-04-30 16:18:00,
2013-04-30 09:23:00,69.7,34.3,21.47,NNW,347,8.0,18.0,27,0.00,,---,0.00,VWS V13.01,2013-04-30 16:23:00,
2013-04-30 09:28:00,70.0,34.5,21.46,NNW,341,7.0,18.0,27,0.00,,---,0.00,VWS V13.01,2013-04-30 16:28:00,
2013-04-30 09:33:00,70.3,34.8,21.46,NNW,340,8.0,14.0,27,0.00,,---,0.00,VWS V13.01,2013-04-30 16:33:00,
2013-04-30 09:38:00,70.7,35.1,21.46,NNW,342,9.0,18.0,27,0.00,,---,0.00,VWS V13.01,2013-04-30 16:38:00,
2013-04-30 09:43:00,71.0,35.4,21.47,NNW,345,9.0,18.0,27,0.00,,---,0.00,VWS V13.01,2013-04-30 16:43:00,
2013-04-30 09:48:00,71.2,34.6,21.47,NNW,338,16.0,19.0,26,0.00,,---,0.00,VWS V13.01,2013-04-30 16:48:00,
2013-04-30 09:53:00,71.5,34.8,21.46,North,352,5.0,20.0,26,0.00,,---,0.00,VWS V13.01,2013-04-30 16:53:00,
2013-04-30 09:58:00,71.9,34.2,21.47,NNW,335,9.0,20.0,25,0.00,,---,0.00,VWS V13.01,2013-04-30 16:58:00,
2013-04-30 10:03:00,72.3,34.5,21.46,NNW,335,7.0,15.0,25,0.00,,---,0.00,VWS V13.01,2013-04-30 17:03:00,
2013-04-30 10:08:00,72.6,34.8,21.47,NNW,339,15.0,21.0,25,0.00,,---,0.00,VWS V13.01,2013-04-30 17:08:00,
2013-04-30 10:13:00,72.8,35.0,21.47,North,350,13.0,21.0,25,0.00,,---,0.00,VWS V13.01,2013-04-30 17:13:00,
2013-04-30 10:18:00,73.0,34.1,21.47,NNW,338,10.0,21.0,24,0.00,,---,0.00,VWS V13.01,2013-04-30 17:18:00,
2013-04-30 10:23:00,73.3,35.4,21.47,NNW,335,11.0,21.0,25,0.00,,---,0.00,VWS V13.01,2013-04-30 17:23:00,
2013-04-30 10:28:00,73.5,34.5,21.46,NNW,343,14.0,21.0,24,0.00,,---,0.00,VWS V13.01,2013-04-30 17:28:00,
2013-04-30 10:33:00,73.8,34.8,21.46,North,349,10.0,21.0,24,0.00,,---,0.00,VWS V13.01,2013-04-30 17:33:00,
2013-04-30 10:38:00,74.0,35.0,21.47,NNW,340,14.0,22.0,24,0.00,,---,0.00,VWS V13.01,2013-04-30 17:38:00,
2013-04-30 10:43:00,73.9,34.9,21.47,NNW,344,10.0,25.0,24,0.00,,---,0.00,VWS V13.01,2013-04-30 17:43:00,
2013-04-30 10:48:00,74.3,35.2,21.47,NNW,346,10.0,25.0,24,0.00,,---,0.00,VWS V13.01,2013-04-30 17:48:00,
2013-04-30 10:53:00,74.5,35.4,21.47,North,350,15.0,25.0,24,0.00,,---,0.00,VWS V13.01,2013-04-30 17:53:00,
2013-04-30 10:58:00,74.7,35.5,21.47,NNW,342,6.0,25.0,24,0.00,,---,0.00,VWS V13.01,2013-04-30 17:58:00,
2013-04-30 11:03:00,75.0,35.8,21.47,NNW,344,6.0,16.0,24,0.00,,---,0.00,VWS V13.01,2013-04-30 18:03:00,
2013-04-30 11:08:00,75.5,37.2,21.47,NNW,338,14.0,16.0,25,0.00,,---,0.00,VWS V13.01,2013-04-30 18:08:00,
2013-04-30 11:13:00,75.7,37.4,21.47,NNW,340,9.0,18.0,25,0.00,,---,0.00,VWS V13.01,2013-04-30 18:13:00,
2013-04-30 11:18:00,76.1,38.8,21.47,NNW,345,9.0,18.0,26,0.00,,---,0.00,VWS V13.01,2013-04-30 18:18:00,
2013-04-30 11:23:00,76.2,36.8,21.47,NNW,338,10.0,18.0,24,0.00,,---,0.00,VWS V13.01,2013-04-30 18:23:00,
2013-04-30 11:28:00,76.4,37.0,21.47,NNW,332,9.0,18.0,24,0.00,,---,0.00,VWS V13.01,2013-04-30 18:28:00,
2013-04-30 11:33:00,76.7,39.3,21.47,NNW,337,12.0,17.0,26,0.00,,---,0.00,VWS V13.01,2013-04-30 18:33:00,
2013-04-30 11:38:00,76.9,38.4,21.47,North,356,12.0,17.0,25,0.00,,---,0.00,VWS V13.01,2013-04-30 18:38:00,
2013-04-30 11:43:00,76.9,37.4,21.47,NNW,338,14.0,24.0,24,0.00,,---,0.00,VWS V13.01,2013-04-30 18:43:00,
2013-04-30 11:48:00,76.7,37.2,21.47,NNW,327,8.0,24.0,24,0.00,,---,0.00,VWS V13.01,2013-04-30 18:48:00,
2013-04-30 11:53:00,77.1,38.6,21.47,NNW,339,7.0,24.0,25,0.00,,---,0.00,VWS V13.01,2013-04-30 18:53:00,
2013-04-30 11:58:00,77.3,37.7,21.47,NNW,342,8.0,24.0,24,0.00,,---,0.00,VWS V13.01,2013-04-30 18:58:00,
2013-04-30 12:03:00,77.7,38.1,21.46,NNW,332,11.0,15.0,24,0.00,,---,0.00,VWS V13.01,2013-04-30 19:03:00,
2013-04-30 12:08:00,77.8,38.2,21.46,NNW,348,6.0,18.0,24,0.00,,---,0.00,VWS V13.01,2013-04-30 19:08:00,
2013-04-30 12:13:00,78.1,38.4,21.46,North,358,14.0,18.0,24,0.00,,---,0.00,VWS V13.01,2013-04-30 19:13:00,
2013-04-30 12:18:00,78.3,38.6,21.45,NNW,341,12.0,19.0,24,0.00,,---,0.00,VWS V13.01,2013-04-30 19:18:00,
2013-04-30 12:23:00,78.3,39.6,21.45,NNW,336,11.0,20.0,25,0.00,,---,0.00,VWS V13.01,2013-04-30 19:23:00,
2013-04-30 12:28:00,78.6,39.9,21.46,North,3,5.0,20.0,25,0.00,,---,0.00,VWS V13.01,2013-04-30 19:28:00,
2013-04-30 12:33:00,78.8,39.0,21.46,NNW,348,8.0,18.0,24,0.00,,---,0.00,VWS V13.01,2013-04-30 19:33:00,
2013-04-30 12:38:00,78.7,38.9,21.45,NNW,346,10.0,18.0,24,0.00,,---,0.00,VWS V13.01,2013-04-30 19:38:00,
2013-04-30 12:43:00,78.8,39.0,21.45,NNW,333,17.0,24.0,24,0.00,,---,0.00,VWS V13.01,2013-04-30 19:43:00,
2013-04-30 12:48:00,79.0,39.2,21.45,NNW,343,12.0,24.0,24,0.00,,---,0.00,VWS V13.01,2013-04-30 19:48:00,
2013-04-30 12:53:00,79.1,39.2,21.45,North,351,10.0,24.0,24,0.00,,---,0.00,VWS V13.01,2013-04-30 19:53:00,
2013-04-30 12:58:00,79.2,39.3,21.45,NNW,345,11.0,24.0,24,0.00,,---,0.00,VWS V13.01,2013-04-30 19:58:00,
2013-04-30 13:03:00,79.7,40.8,21.45,North,355,10.0,17.0,25,0.00,,---,0.00,VWS V13.01,2013-04-30 20:03:00,
2013-04-30 13:08:00,79.9,39.9,21.45,NNW,339,11.0,19.0,24,0.00,,---,0.00,VWS V13.01,2013-04-30 20:08:00,
2013-04-30 13:13:00,80.2,40.2,21.44,NNW,344,6.0,19.0,24,0.00,,---,0.00,VWS V13.01,2013-04-30 20:13:00,
2013-04-30 13:18:00,80.9,40.8,21.45,North,355,8.0,19.0,24,0.00,,---,0.00,VWS V13.01,2013-04-30 20:18:00,
2013-04-30 13:23:00,81.3,40.0,21.45,NNW,346,12.0,19.0,23,0.00,,---,0.00,VWS V13.01,2013-04-30 20:23:00,
2013-04-30 13:28:00,81.4,41.2,21.44,NNW,340,7.0,20.0,24,0.00,,---,0.00,VWS V13.01,2013-04-30 20:28:00,
2013-04-30 13:33:00,81.5,40.2,21.44,North,352,12.0,17.0,23,0.00,,---,0.00,VWS V13.01,2013-04-30 20:33:00,
2013-04-30 13:38:00,81.8,40.4,21.44,NNW,336,10.0,17.0,23,0.00,,---,0.00,VWS V13.01,2013-04-30 20:38:00,
2013-04-30 13:43:00,82.1,41.8,21.44,NNW,334,12.0,17.0,24,0.00,,---,0.00,VWS V13.01,2013-04-30 20:43:00,
2013-04-30 13:48:00,82.2,40.8,21.44,NW,326,8.0,17.0,23,0.00,,---,0.00,VWS V13.01,2013-04-30 20:48:00,
2013-04-30 13:53:00,82.4,40.9,21.44,NNW,343,7.0,18.0,23,0.00,,---,0.00,VWS V13.01,2013-04-30 20:53:00,
2013-04-30 13:58:00,82.4,40.9,21.44,North,359,11.0,18.0,23,0.00,,---,0.00,VWS V13.01,2013-04-30 20:58:00,
2013-04-30 14:03:00,82.7,41.2,21.44,NNW,347,10.0,13.0,23,0.00,,---,0.00,VWS V13.01,2013-04-30 21:03:00,
2013-04-30 14:08:00,82.7,41.2,21.44,NNW,328,12.0,16.0,23,0.00,,---,0.00,VWS V13.01,2013-04-30 21:08:00,
2013-04-30 14:13:00,83.0,41.4,21.43,North,352,5.0,16.0,23,0.00,,---,0.00,VWS V13.01,2013-04-30 21:13:00,
2013-04-30 14:18:00,83.7,40.9,21.43,North,349,10.0,17.0,22,0.00,,---,0.00,VWS V13.01,2013-04-30 21:18:00,
2013-04-30 14:23:00,83.8,42.1,21.43,NNW,336,10.0,17.0,23,0.00,,---,0.00,VWS V13.01,2013-04-30 21:23:00,
2013-04-30 14:28:00,83.4,41.8,21.43,NNW,345,10.0,18.0,23,0.00,,---,0.00,VWS V13.01,2013-04-30 21:28:00,
2013-04-30 14:33:00,83.6,41.9,21.42,NNW,335,8.0,19.0,23,0.00,,---,0.00,VWS V13.01,2013-04-30 21:33:00,
2013-04-30 14:38:00,84.0,42.3,21.43,NNW,344,15.0,20.0,23,0.00,,---,0.00,VWS V13.01,2013-04-30 21:38:00,
2013-04-30 14:43:00,83.9,39.8,21.42,NNW,345,7.0,20.0,21,0.00,,---,0.00,VWS V13.01,2013-04-30 21:43:00,
2013-04-30 14:48:00,84.1,41.2,21.43,NNW,345,6.0,20.0,22,0.00,,---,0.00,VWS V13.01,2013-04-30 21:48:00,
2013-04-30 14:53:00,83.8,40.9,21.42,NNW,346,6.0,20.0,22,0.00,,---,0.00,VWS V13.01,2013-04-30 21:53:00,
2013-04-30 14:58:00,83.7,39.7,21.42,NNW,340,9.0,20.0,21,0.00,,---,0.00,VWS V13.01,2013-04-30 21:58:00,
2013-04-30 15:03:00,83.4,40.6,21.42,NNW,338,17.0,20.0,22,0.00,,---,0.00,VWS V13.01,2013-04-30 22:03:00,
2013-04-30 15:08:00,83.6,39.6,21.41,North,354,9.0,20.0,21,0.00,,---,0.00,VWS V13.01,2013-04-30 22:08:00,
2013-04-30 15:13:00,83.8,40.9,21.41,NNW,341,10.0,20.0,22,0.00,,---,0.00,VWS V13.01,2013-04-30 22:13:00,
2013-04-30 15:18:00,83.8,39.7,21.41,North,353,8.0,20.0,21,0.00,,---,0.00,VWS V13.01,2013-04-30 22:18:00,
2013-04-30 15:23:00,84.0,39.9,21.41,NNW,331,13.0,20.0,21,0.00,,---,0.00,VWS V13.01,2013-04-30 22:23:00,
2013-04-30 15:28:00,83.6,39.6,21.41,North,350,8.0,20.0,21,0.00,,---,0.00,VWS V13.01,2013-04-30 22:28:00,
2013-04-30 15:34:00,83.5,40.7,21.41,North,353,10.0,18.0,22,0.00,,---,0.00,VWS V13.01,2013-04-30 22:34:00,
2013-04-30 15:39:00,83.2,39.2,21.40,NNW,336,18.0,20.0,21,0.00,,---,0.00,VWS V13.01,2013-04-30 22:39:00,
2013-04-30 15:44:00,82.8,38.9,21.40,NNW,342,11.0,20.0,21,0.00,,---,0.00,VWS V13.01,2013-04-30 22:44:00,
2013-04-30 15:49:00,82.6,38.8,21.39,NNW,341,11.0,20.0,21,0.00,,---,0.00,VWS V13.01,2013-04-30 22:49:00,
2013-04-30 15:54:00,82.6,38.8,21.39,NNW,331,8.0,20.0,21,0.00,,---,0.00,VWS V13.01,2013-04-30 22:54:00,
2013-04-30 15:59:00,82.8,40.1,21.38,North,0,9.0,20.0,22,0.00,,---,0.00,VWS V13.01,2013-04-30 22:59:00,
2013-04-30 16:04:00,83.1,39.2,21.39,North,6,15.0,17.0,21,0.00,,---,0.00,VWS V13.01,2013-04-30 23:04:00,
2013-04-30 16:09:00,82.9,39.0,21.38,North,353,12.0,17.0,21,0.00,,---,0.00,VWS V13.01,2013-04-30 23:09:00,
2013-04-30 16:14:00,82.9,39.0,21.38,North,354,10.0,18.0,21,0.00,,---,0.00,VWS V13.01,2013-04-30 23:14:00,
2013-04-30 16:19:00,82.6,38.8,21.38,North,351,7.0,18.0,21,0.00,,---,0.00,VWS V13.01,2013-04-30 23:19:00,
2013-04-30 16:24:00,82.4,39.8,21.38,North,351,5.0,18.0,22,0.00,,---,0.00,VWS V13.01,2013-04-30 23:24:00,
2013-04-30 16:29:00,82.0,38.2,21.38,NNW,342,10.0,20.0,21,0.00,,---,0.00,VWS V13.01,2013-04-30 23:29:00,
2013-04-30 16:34:00,81.7,38.0,21.38,North,355,10.0,17.0,21,0.00,,---,0.00,VWS V13.01,2013-04-30 23:34:00,
2013-04-30 16:39:00,81.5,37.8,21.38,NNW,339,16.0,19.0,21,0.00,,---,0.00,VWS V13.01,2013-04-30 23:39:00,
2013-04-30 16:44:00,81.1,37.5,21.38,North,350,7.0,19.0,21,0.00,,---,0.00,VWS V13.01,2013-04-30 23:44:00,
2013-04-30 16:49:00,81.0,37.4,21.37,NNW,348,9.0,19.0,21,0.00,,---,0.00,VWS V13.01,2013-04-30 23:49:00,
2013-04-30 16:54:00,81.2,37.6,21.38,NNW,336,17.0,19.0,21,0.00,,---,0.00,VWS V13.01,2013-04-30 23:54:00,
2013-04-30 16:59:00,81.6,37.9,21.37,NNW,338,12.0,19.0,21,0.00,,---,0.00,VWS V13.01,2013-04-30 23:59:00,
2013-04-30 17:04:00,82.0,38.2,21.38,NNW,336,7.0,16.0,21,0.00,,---,0.00,VWS V13.01,2013-05-01 00:04:00,
2013-04-30 17:09:00,82.3,39.7,21.38,NNW,336,9.0,17.0,22,0.00,,---,0.00,VWS V13.01,2013-05-01 00:09:00,
2013-04-30 17:14:00,82.3,38.5,21.39,NNW,337,12.0,21.0,21,0.00,,---,0.00,VWS V13.01,2013-05-01 00:14:00,
2013-04-30 17:19:00,82.2,38.4,21.39,North,355,6.0,21.0,21,0.00,,---,0.00,VWS V13.01,2013-05-01 00:19:00,
2013-04-30 17:24:00,82.2,38.4,21.39,NNW,328,13.0,21.0,21,0.00,,---,0.00,VWS V13.01,2013-05-01 00:24:00,
2013-04-30 17:29:00,82.0,38.2,21.40,NNW,347,12.0,21.0,21,0.00,,---,0.00,VWS V13.01,2013-05-01 00:29:00,
2013-04-30 17:34:00,81.8,36.8,21.40,NNW,341,15.0,18.0,20,0.00,,---,0.00,VWS V13.01,2013-05-01 00:34:00,
2013-04-30 17:39:00,81.6,36.7,21.41,NNW,336,8.0,18.0,20,0.00,,---,0.00,VWS V13.01,2013-05-01 00:39:00,
2013-04-30 17:44:00,81.6,36.7,21.41,North,351,10.0,20.0,20,0.00,,---,0.00,VWS V13.01,2013-05-01 00:44:00,
2013-04-30 17:49:00,81.5,36.6,21.41,NNW,340,10.0,21.0,20,0.00,,---,0.00,VWS V13.01,2013-05-01 00:49:00,
2013-04-30 17:54:00,81.5,36.6,21.42,NNW,334,9.0,21.0,20,0.00,,---,0.00,VWS V13.01,2013-05-01 00:54:00,
2013-04-30 17:59:00,81.3,36.4,21.42,NNW,337,10.0,21.0,20,0.00,,---,0.00,VWS V13.01,2013-05-01 00:59:00,
2013-04-30 18:04:00,81.2,36.4,21.42,NNW,342,8.0,17.0,20,0.00,,---,0.00,VWS V13.01,2013-05-01 01:04:00,
2013-04-30 18:09:00,81.3,37.7,21.42,NNW,340,8.0,17.0,21,0.00,,---,0.00,VWS V13.01,2013-05-01 01:09:00,
2013-04-30 18:14:00,81.1,36.3,21.42,NNW,347,10.0,21.0,20,0.00,,---,0.00,VWS V13.01,2013-05-01 01:14:00,
2013-04-30 18:19:00,81.1,36.3,21.43,NNW,348,10.0,21.0,20,0.00,,---,0.00,VWS V13.01,2013-05-01 01:19:00,
2013-04-30 18:24:00,80.9,36.1,21.43,NNW,348,9.0,21.0,20,0.00,,---,0.00,VWS V13.01,2013-05-01 01:24:00,
2013-04-30 18:29:00,80.7,34.7,21.44,NNW,334,10.0,22.0,19,0.00,,---,0.00,VWS V13.01,2013-05-01 01:29:00,
2013-04-30 18:34:00,80.5,34.5,21.44,NNW,346,6.0,19.0,19,0.00,,---,0.00,VWS V13.01,2013-05-01 01:34:00,
2013-04-30 18:39:00,80.3,34.3,21.44,NNW,338,10.0,19.0,19,0.00,,---,0.00,VWS V13.01,2013-05-01 01:39:00,
2013-04-30 18:44:00,80.1,34.2,21.45,NNW,334,5.0,19.0,19,0.00,,---,0.00,VWS V13.01,2013-05-01 01:44:00,
2013-04-30 18:49:00,80.0,35.4,21.45,North,351,12.0,19.0,20,0.00,,---,0.00,VWS V13.01,2013-05-01 01:49:00,
2013-04-30 18:54:00,79.8,35.2,21.45,NNW,348,5.0,19.0,20,0.00,,---,0.00,VWS V13.01,2013-05-01 01:54:00,
2013-04-30 18:59:00,79.5,33.7,21.45,NNW,342,12.0,19.0,19,0.00,,---,0.00,VWS V13.01,2013-05-01 01:59:00,
2013-04-30 19:04:00,79.2,33.4,21.45,North,359,5.0,18.0,19,0.00,,---,0.00,VWS V13.01,2013-05-01 02:04:00,
2013-04-30 19:09:00,79.0,33.3,21.45,NNW,332,4.0,18.0,19,0.00,,---,0.00,VWS V13.01,2013-05-01 02:09:00,
2013-04-30 19:14:00,78.8,33.1,21.45,North,358,9.0,18.0,19,0.00,,---,0.00,VWS V13.01,2013-05-01 02:14:00,
2013-04-30 19:19:00,78.6,32.9,21.46,NNW,337,24.0,24.0,19,0.00,,---,0.00,VWS V13.01,2013-05-01 02:19:00,
2013-04-30 19:24:00,78.4,32.8,21.46,NNW,330,6.0,24.0,19,0.00,,---,0.00,VWS V13.01,2013-05-01 02:24:00,
2013-04-30 19:29:00,78.1,32.5,21.46,NNW,347,5.0,24.0,19,0.00,,---,0.00,VWS V13.01,2013-05-01 02:29:00,
2013-04-30 19:34:00,77.8,34.8,21.47,NNW,341,10.0,16.0,21,0.00,,---,0.00,VWS V13.01,2013-05-01 02:34:00,
2013-04-30 19:39:00,77.4,34.5,21.47,NNW,341,10.0,18.0,21,0.00,,---,0.00,VWS V13.01,2013-05-01 02:39:00,
2013-04-30 19:44:00,77.2,34.3,21.48,NNW,336,11.0,18.0,21,0.00,,---,0.00,VWS V13.01,2013-05-01 02:44:00,
2013-04-30 19:49:00,76.8,34.0,21.47,NNW,332,5.0,18.0,21,0.00,,---,0.00,VWS V13.01,2013-05-01 02:49:00,
2013-04-30 19:54:00,76.6,33.8,21.47,NNW,338,6.0,18.0,21,0.00,,---,0.00,VWS V13.01,2013-05-01 02:54:00,
2013-04-30 19:59:00,76.4,32.4,21.48,NNW,333,7.0,19.0,20,0.00,,---,0.00,VWS V13.01,2013-05-01 02:59:00,
2013-04-30 20:04:00,76.3,33.5,21.48,North,351,10.0,12.0,21,0.00,,---,0.00,VWS V13.01,2013-05-01 03:04:00,
2013-04-30 20:09:00,76.1,33.4,21.48,NNW,329,6.0,16.0,21,0.00,,---,0.00,VWS V13.01,2013-05-01 03:09:00,
2013-04-30 20:14:00,75.8,33.1,21.48,NNW,334,9.0,16.0,21,0.00,,---,0.00,VWS V13.01,2013-05-01 03:14:00,
2013-04-30 20:19:00,75.5,32.9,21.48,NNW,341,6.0,17.0,21,0.00,,---,0.00,VWS V13.01,2013-05-01 03:19:00,
2013-04-30 20:24:00,75.4,32.8,21.48,NNW,341,12.0,17.0,21,0.00,,---,0.00,VWS V13.01,2013-05-01 03:24:00,
2013-04-30 20:29:00,75.2,32.6,21.48,NNW,341,12.0,21.0,21,0.00,,---,0.00,VWS V13.01,2013-05-01 03:29:00,
2013-04-30 20:34:00,75.0,32.5,21.48,NNW,340,12.0,20.0,21,0.00,,---,0.00,VWS V13.01,2013-05-01 03:34:00,
2013-04-30 20:39:00,74.8,32.3,21.48,NNW,337,10.0,20.0,21,0.00,,---,0.00,VWS V13.01,2013-05-01 03:39:00,
2013-04-30 20:44:00,74.6,33.3,21.48,NNW,347,9.0,20.0,22,0.00,,---,0.00,VWS V13.01,2013-05-01 03:44:00,
2013-04-30 20:49:00,74.4,33.1,21.48,NNW,339,13.0,20.0,22,0.00,,---,0.00,VWS V13.01,2013-05-01 03:49:00,
2013-04-30 20:54:00,74.2,34.1,21.48,North,349,8.0,20.0,23,0.00,,---,0.00,VWS V13.01,2013-05-01 03:54:00,
2013-04-30 20:59:00,74.0,32.8,21.48,NNW,341,7.0,20.0,22,0.00,,---,0.00,VWS V13.01,2013-05-01 03:59:00,
2013-04-30 21:01:00,74.0,33.9,21.49,NNW,332,9.0,13.0,23,0.00,,---,0.00,VWS V13.01,2013-05-01 04:01:00,
2013-04-30 21:02:00,74.0,33.9,21.49,NNW,340,8.0,19.0,23,0.00,,---,0.00,VWS V13.01,2013-05-01 04:02:00,
2013-04-30 21:04:00,73.9,32.7,21.49,NNW,333,15.0,19.0,22,0.00,,---,0.00,VWS V13.01,2013-05-01 04:04:00,
2013-04-30 21:07:00,73.8,33.7,21.49,NW,326,8.0,19.0,23,0.00,,---,0.00,VWS V13.01,2013-05-01 04:07:00,
2013-04-30 21:12:00,73.5,33.5,21.48,NNW,344,14.0,19.0,23,0.00,,---,0.00,VWS V13.01,2013-05-01 04:12:00,
2013-04-30 21:17:00,73.4,34.5,21.48,NNW,335,15.0,19.0,24,0.00,,---,0.00,VWS V13.01,2013-05-01 04:17:00,
2013-04-30 21:20:00,73.2,34.3,21.48,NNW,348,8.0,19.0,24,0.00,,---,0.00,VWS V13.01,2013-05-01 04:20:00,
2013-04-30 21:25:00,73.1,33.1,21.48,NNW,348,4.0,21.0,23,0.00,,---,0.00,VWS V13.01,2013-05-01 04:25:00,
2013-04-30 21:30:00,72.9,33.0,21.48,NNW,339,10.0,14.0,23,0.00,,---,0.00,VWS V13.01,2013-05-01 04:30:00,
2013-04-30 21:35:00,72.8,33.9,21.47,NNW,330,2.0,17.0,24,0.00,,---,0.00,VWS V13.01,2013-05-01 04:35:00,
2013-04-30 21:40:00,72.6,33.8,21.47,NNW,342,7.0,17.0,24,0.00,,---,0.00,VWS V13.01,2013-05-01 04:40:00,
2013-04-30 21:45:00,72.5,33.7,21.47,NNW,343,6.0,19.0,24,0.00,,---,0.00,VWS V13.01,2013-05-01 04:45:00,
2013-04-30 21:50:00,72.3,33.5,21.47,NW,325,8.0,19.0,24,0.00,,---,0.00,VWS V13.01,2013-05-01 04:50:00,
2013-04-30 21:55:00,72.1,33.3,21.47,NNW,336,7.0,19.0,24,0.00,,---,0.00,VWS V13.01,2013-05-01 04:55:00,
2013-04-30 22:00:00,72.0,33.3,21.47,NNW,333,9.0,13.0,24,0.00,,---,0.00,VWS V13.01,2013-05-01 05:00:00,
2013-04-30 22:05:00,71.8,33.1,21.47,NNW,335,11.0,17.0,24,0.00,,---,0.00,VWS V13.01,2013-05-01 05:05:00,
2013-04-30 22:10:00,71.7,33.0,21.47,NNW,343,5.0,19.0,24,0.00,,---,0.00,VWS V13.01,2013-05-01 05:10:00,
2013-04-30 22:15:00,71.6,32.9,21.47,NNW,342,11.0,19.0,24,0.00,,---,0.00,VWS V13.01,2013-05-01 05:15:00,
2013-04-30 22:20:00,71.4,32.8,21.47,NNW,334,11.0,19.0,24,0.00,,---,0.00,VWS V13.01,2013-05-01 05:20:00,
2013-04-30 22:25:00,71.3,32.7,21.47,NNW,334,7.0,19.0,24,0.00,,---,0.00,VWS V13.01,2013-05-01 05:25:00,
2013-04-30 22:30:00,71.2,32.6,21.47,North,351,7.0,14.0,24,0.00,,---,0.00,VWS V13.01,2013-05-01 05:30:00,
2013-04-30 22:35:00,71.2,32.6,21.47,NNW,341,8.0,18.0,24,0.00,,---,0.00,VWS V13.01,2013-05-01 05:35:00,
2013-04-30 22:40:00,71.2,32.6,21.47,NNW,340,12.0,19.0,24,0.00,,---,0.00,VWS V13.01,2013-05-01 05:40:00,
2013-04-30 22:45:00,71.2,32.6,21.47,NNW,341,10.0,19.0,24,0.00,,---,0.00,VWS V13.01,2013-05-01 05:45:00,
2013-04-30 22:50:00,71.1,31.5,21.47,NNW,337,5.0,19.0,23,0.00,,---,0.00,VWS V13.01,2013-05-01 05:50:00,
2013-04-30 22:55:00,71.1,31.5,21.47,NNW,337,6.0,19.0,23,0.00,,---,0.00,VWS V13.01,2013-05-01 05:55:00,
2013-04-30 23:01:00,70.9,31.3,21.48,NNW,336,8.0,12.0,23,0.00,,---,0.00,VWS V13.01,2013-05-01 06:01:00,
2013-04-30 23:06:00,70.9,31.3,21.48,NNW,336,10.0,19.0,23,0.00,,---,0.00,VWS V13.01,2013-05-01 06:06:00,
2013-04-30 23:11:00,70.7,32.2,21.48,NNW,345,8.0,19.0,24,0.00,,---,0.00,VWS V13.01,2013-05-01 06:11:00,
2013-04-30 23:16:00,70.5,32.0,21.48,NNW,337,4.0,19.0,24,0.00,,---,0.00,VWS V13.01,2013-05-01 06:16:00,
2013-04-30 23:21:00,70.4,30.9,21.48,NNW,335,10.0,19.0,23,0.00,,---,0.00,VWS V13.01,2013-05-01 06:21:00,
2013-04-30 23:26:00,70.3,30.8,21.48,WNW,303,5.0,19.0,23,0.00,,---,0.00,VWS V13.01,2013-05-01 06:26:00,
2013-04-30 23:31:00,70.3,30.8,21.48,WNW,287,5.0,9.0,23,0.00,,---,0.00,VWS V13.01,2013-05-01 06:31:00,
2013-04-30 23:36:00,70.2,30.7,21.48,NNW,332,4.0,15.0,23,0.00,,---,0.00,VWS V13.01,2013-05-01 06:36:00,
2013-04-30 23:41:00,70.0,30.5,21.49,NNW,332,9.0,16.0,23,0.00,,---,0.00,VWS V13.01,2013-05-01 06:41:00,
2013-04-30 23:46:00,70.0,30.5,21.48,NNW,340,9.0,17.0,23,0.00,,---,0.00,VWS V13.01,2013-05-01 06:46:00,
2013-04-30 23:51:00,69.9,30.5,21.49,NNW,341,8.0,17.0,23,0.00,,---,0.00,VWS V13.01,2013-05-01 06:51:00,
2013-04-30 23:56:00,69.9,30.5,21.48,North,352,8.0,17.0,23,0.00,,---,0.00,VWS V13.01,2013-05-01 06:56:00,